Wind_Speed
18 20 18 15 15 16 15 14 15 18 25 30 33 34 36 36 36 36 37 40 42 42 42 40 38 39 38 38 36 35 33 32 31 31 29 28 27 27 26 24 24 25 24 24 25 25 24 23 24 25 26 26 26 24 22 22 22 21 19 18 17 17 17
18 18 18 16 15 15 14 13 12 14 20 28 33 34 34 35 35 36 36 39 42 42 43 42 40 40 39 38 37 36 35 34 32 32 30 30 29 29 28 27 25 26 26 25 24 25 25 24 24 26 26 26 26 25 24 23 23 23 21 20 19 18 18
18 17 19 19 17 16 16 13 13 16 23 30 35 35 36 37 37 37 36 37 39 40 41 43 42 41 40 39 39 38 38 36 34 33 32 32 31 30 30 29 28 27 27 26 24 24 25 25 25 26 27 27 26 25 25 24 24 24 22 21 21 20 20
19 18 18 20 20 19 20 19 19 26 33 37 39 37 36 36 35 36 35 36 38 38 39 41 41 41 41 41 40 39 40 39 37 35 33 32 32 32 31 30 29 28 26 27 26 24 23 24 26 26 26 27 26 25 26 25 24 25 24 22 22 21 21
20 18 16 18 20 17 18 18 20 27 34 37 37 37 35 35 34 34 34 35 37 38 38 39 39 39 40 40 39 38 40 41 39 37 35 33 32 33 32 31 30 30 27 27 27 27 25 24 26 27 27 27 26 26 26 25 25 25 25 24 24 22 21
19 17 14 16 18 17 18 19 21 28 32 32 33 34 34 35 36 35 35 35 36 37 37 37 37 37 37 38 37 38 40 41 40 38 36 34 33 33 33 32 31 31 30 28 27 28 28 26 25 27 28 27 27 26 26 26 26 26 26 26 25 24 22
18 16 14 15 17 18 20 20 21 25 27 26 27 31 33 34 36 36 35 35 36 37 37 37 37 36 37 37 37 38 39 39 39 39 36 35 34 33 33 33 33 32 31 30 29 28 29 29 27 26 27 28 27 27 26 27 27 27 27 28 28 27 24
19 17 15 16 18 18 18 17 16 18 20 19 22 29 33 34 34 36 36 36 36 36 37 37 36 36 37 37 37 37 37 37 38 39 38 36 35 35 33 33 34 33 31 30 31 30 30 31 30 28 28 28 29 29 28 28 29 28 28 29 29 29 27
20 21 18 18 19 18 16 15 14 16 19 21 26 30 32 33 34 36 36 36 36 36 37 37 36 36 37 37 36 36 37 36 36 38 38 36 35 35 34 33 33 34 32 31 30 31 31 30 31 31 30 29 29 30 30 30 30 30 29 30 30 30 29
17 20 18 18 17 14 14 15 13 13 15 19 26 28 30 32 33 34 35 35 36 36 37 37 36 36 36 36 34 35 36 36 35 36 36 36 34 34 34 32 32 32 33 32 30 30 31 31 31 32 32 31 31 31 32 31 31 31 31 30 31 31 30
13 18 16 14 14 13 15 15 13 12 12 14 21 25 27 30 31 32 34 35 34 35 35 36 36 35 35 35 35 35 36 36 35 35 35 35 34 33 34 32 31 31 32 33 31 30 31 32 32 32 34 34 33 33 33 33 32 32 32 31 31 32 32
8 14 14 13 13 14 16 15 13 13 11 12 19 23 24 27 30 31 32 33 33 33 34 35 35 34 34 35 35 35 36 36 36 35 35 36 34 33 34 33 31 31 31 33 33 32 31 33 34 34 35 35 35 34 34 34 34 34 34 33 31 32 32
8 10 11 11 10 11 13 12 12 14 12 13 20 24 23 26 30 29 29 31 32 31 32 34 34 34 34 34 34 35 35 36 37 37 36 36 36 35 34 34 33 32 32 32 33 33 32 33 35 36 36 36 37 36 36 36 35 35 35 34 32 32 32
12 12 9 9 10 10 10 9 9 12 13 14 20 23 23 25 29 28 27 29 31 31 31 32 33 34 34 34 34 35 36 36 38 39 39 38 38 37 35 35 35 34 33 33 33 33 33 33 35 36 36 36 37 38 37 37 37 36 36 36 35 33 33
14 13 10 8 8 8 8 7 7 9 11 13 17 20 21 23 25 26 26 27 30 31 31 31 33 34 34 35 35 35 37 37 37 39 40 39 38 39 38 37 36 35 34 34 34 34 33 32 33 34 36 36 36 37 37 37 38 38 38 38 37 36 34
13 14 14 11 8 7 6 6 7 8 9 9 11 16 19 20 21 24 26 26 28 30 30 30 32 34 34 34 36 35 35 36 36 36 38 39 39 39 39 38 36 36 36 35 35 34 34 33 32 32 34 35 36 36 37 37 37 39 40 41 40 38 36
7 10 15 14 10 9 7 6 6 6 8 8 9 13 17 18 19 22 25 26 27 28 29 28 29 33 34 33 33 34 35 36 36 35 37 38 38 38 39 39 37 36 36 36 35 35 35 35 34 33 32 33 34 35 36 37 38 39 42 43 43 41 38
9 5 7 10 9 10 10 10 9 8 9 11 12 14 16 17 19 21 23 25 26 27 28 29 28 30 33 32 31 33 35 35 35 35 35 37 37 37 38 39 38 37 36 37 36 35 35 35 36 35 33 32 33 34 35 37 38 40 42 44 46 45 42
4 1 2 5 7 10 11 11 12 12 12 13 15 16 17 18 19 20 21 22 24 26 28 29 28 28 32 33 32 33 35 34 34 35 34 35 37 37 36 37 38 38 37 36 36 35 35 36 37 36 36 34 34 35 35 35 37 40 42 44 46 47 44
2 1 2 3 2 5 6 5 8 10 9 12 16 18 20 21 20 20 21 21 22 25 26 28 28 26 29 34 33 32 34 34 34 34 34 34 35 36 36 36 37 37 36 34 34 35 35 36 36 37 38 38 36 36 36 36 36 38 41 44 46 47 47
2 2 2 3 2 5 8 7 5 4 3 2 2 5 12 19 21 20 21 21 21 23 24 26 27 26 25 31 34 32 33 34 33 32 33 32 33 34 35 35 35 34 33 32 33 35 36 36 36 37 38 39 37 36 35 35 35 37 40 43 44 47 49
3 5 2 4 8 9 8 8 7 6 6 7 6 6 5 11 16 18 20 21 21 23 23 23 26 26 25 28 32 32 31 32 32 31 31 31 31 33 33 33 33 32 32 32 31 32 34 35 35 35 36 36 37 36 36 35 35 36 39 42 43 45 48
10 13 11 11 11 11 11 10 9 8 7 7 6 6 8 8 11 13 17 21 21 21 22 22 24 26 25 25 29 31 31 31 31 30 30 30 30 31 32 31 31 31 31 31 29 29 30 32 33 34 34 34 36 37 38 36 34 36 38 40 43 45 48
13 12 11 11 11 12 13 11 8 8 7 8 7 8 9 10 11 11 8 16 22 21 21 22 23 24 24 24 26 30 30 30 30 29 29 30 29 28 29 29 29 29 30 30 29 28 28 28 30 32 32 33 35 37 38 37 35 36 38 39 41 45 48
12 10 9 10 11 11 10 7 5 6 6 5 6 7 7 8 10 12 10 8 15 20 21 21 22 23 23 22 23 27 29 29 30 29 28 29 28 26 27 28 27 27 28 28 28 28 27 26 27 29 30 32 33 35 37 37 35 36 38 38 39 43 47
10 10 9 10 11 10 8 5 4 4 5 7 9 9 8 8 8 9 10 11 10 15 19 21 21 22 23 22 22 25 28 28 28 28 27 27 27 26 26 26 26 25 26 26 27 27 28 28 27 27 28 30 31 33 36 38 36 36 37 38 39 41 45
9 9 8 10 10 8 7 7 7 7 7 8 9 9 8 7 8 8 9 10 11 11 13 17 21 22 23 24 22 23 26 27 27 27 26 25 25 25 24 25 25 26 26 25 25 26 27 28 27 27 27 28 30 31 33 35 35 35 36 38 38 40 43
9 9 8 9 8 7 8 7 7 7 8 8 8 9 10 8 7 7 8 9 8 9 9 10 18 23 23 23 23 22 23 25 25 25 25 24 24 24 24 24 24 25 25 25 25 25 25 26 26 25 25 26 27 28 29 30 31 33 35 38 38 38 41
10 9 9 9 8 8 9 7 6 6 6 7 9 9 10 12 10 5 6 7 6 7 8 7 12 20 21 21 22 21 21 23 24 23 23 23 24 24 24 24 23 24 24 25 24 23 23 23 24 23 23 22 23 24 25 26 27 30 34 36 38 38 40
10 9 9 10 9 9 9 5 4 6 6 7 9 7 9 13 10 1 1 4 6 2 5 7 7 16 18 17 19 19 18 19 22 23 22 22 22 23 22 23 23 23 23 23 23 21 20 20 20 21 20 20 21 21 22 22 24 26 29 33 35 37 38
10 9 9 10 9 10 10 6 5 6 6 7 8 6 8 12 9 7 7 8 9 8 7 6 4 11 16 15 15 17 17 16 19 21 21 20 21 21 20 20 20 20 20 20 20 19 17 16 16 17 18 18 19 19 19 20 19 20 22 26 32 35 37
10 10 9 10 9 10 10 9 6 7 7 8 9 7 6 9 9 9 8 6 6 7 8 7 2 5 11 12 11 13 14 14 15 18 19 19 18 19 18 18 19 18 17 17 17 17 16 15 15 15 16 16 17 18 18 18 18 19 20 21 26 33 37
9 10 9 9 8 8 8 7 6 6 5 7 9 9 7 6 8 6 4 4 4 3 4 5 3 3 7 8 8 10 11 12 12 14 17 16 15 15 16 16 16 16 15 15 15 15 15 15 14 14 14 14 15 16 17 18 20 21 18 14 15 24 31
8 9 9 7 6 6 7 7 5 5 5 6 6 8 7 5 5 4 3 3 2 0 0 1 2 3 5 7 7 8 10 11 11 13 15 15 14 14 15 17 16 16 16 16 16 16 15 15 16 16 15 15 15 14 15 16 14 10 7 6 5 9 17
9 10 9 6 4 4 5 6 5 4 5 4 4 4 4 3 3 3 3 2 1 1 2 4 5 5 7 8 8 10 11 11 12 12 13 14 16 15 14 15 15 15 14 12 13 14 13 11 10 8 7 7 5 4 5 5 3 4 8 9 9 8 7
8 10 8 5 3 2 2 2 3 3 3 3 5 4 2 2 3 4 5 5 3 2 4 6 6 6 7 5 4 7 11 10 11 15 14 12 14 16 16 14 13 11 8 6 5 4 3 2 1 1 2 2 4 5 5 4 6 9 12 14 15 14 13
6 8 8 5 3 1 2 2 1 1 0 4 6 4 2 2 4 5 5 6 5 5 4 3 5 5 8 9 11 11 9 6 6 10 9 4 6 6 7 9 9 7 6 7 6 4 4 4 4 4 4 4 5 5 5 6 8 12 16 17 19 20 20
7 8 8 5 2 1 2 3 3 3 1 3 5 6 5 6 7 7 7 8 8 10 11 7 3 6 9 10 12 14 13 11 11 11 10 10 11 10 8 7 7 7 8 9 9 9 9 7 7 7 8 8 8 8 9 11 12 14 15 17 18 19 20
Wind_Direction
182 173 175 180 181 182 183 182 182 194 200 197 197 196 192 190 187 184 183 183 183 184 186 187 187 189 190 192 195 196 198 199 200 200 202 204 205 205 206 205 204 206 207 205 207 208 207 205 203 204 208 211 210 209 209 209 211 211 209 207 205 203 202
186 176 171 177 181 180 180 175 174 195 208 201 196 197 195 192 188 185 184 184 184 185 185 187 188 189 191 193 194 196 198 199 201 202 203 205 207 208 208 208 207 208 209 208 208 209 209 207 206 206 208 210 210 209 209 209 210 209 208 208 206 205 204
189 182 172 175 178 180 183 180 176 194 211 208 199 197 196 193 190 186 184 184 185 185 185 186 188 189 190 192 193 196 198 200 201 201 202 205 207 208 209 209 210 210 210 211 210 209 209 208 208 208 207 207 208 208 208 208 209 207 206 207 207 206 206
185 186 178 171 169 176 183 184 184 192 204 206 199 197 196 192 190 187 185 184 184 185 186 186 187 188 190 191 193 196 198 200 201 201 203 205 207 208 208 209 210 211 211 211 211 209 209 208 208 208 208 206 206 207 207 206 207 207 205 206 206 206 209
178 186 183 166 164 173 178 180 186 192 200 202 196 196 196 191 189 188 186 186 186 186 186 186 187 189 190 190 191 194 198 200 201 202 203 205 207 207 208 209 209 210 210 210 210 211 210 207 206 207 208 207 206 206 207 206 206 206 204 205 207 207 210
177 185 179 163 165 173 176 182 189 192 197 201 198 195 195 193 191 190 189 187 188 188 187 188 188 189 190 190 190 193 197 200 200 202 204 205 206 207 207 209 208 209 210 209 209 210 210 209 206 205 206 206 206 205 206 206 206 206 204 204 206 207 208
177 179 178 170 169 173 178 184 188 189 190 197 204 200 195 196 194 192 192 190 189 190 189 189 189 189 191 192 193 195 196 198 199 200 202 204 206 207 207 208 209 209 209 209 209 209 209 210 208 205 204 204 205 206 206 206 205 205 205 204 205 206 207
169 171 185 180 171 171 175 179 180 178 174 186 210 207 198 198 196 193 194 192 191 191 190 191 191 190 192 193 195 196 195 196 197 199 201 202 205 206 207 208 208 208 208 209 210 209 209 210 209 206 204 203 205 206 206 207 207 205 204 205 205 205 206
169 172 186 177 169 170 168 168 172 168 165 183 210 210 199 198 199 196 196 194 193 193 192 192 192 191 193 195 196 197 196 196 197 198 200 201 203 205 205 207 208 208 208 209 209 210 209 209 208 207 205 205 206 207 208 209 208 207 206 206 207 206 206
173 166 177 175 167 161 154 158 168 169 171 188 205 204 195 198 200 198 197 196 195 195 192 192 193 192 192 195 196 195 196 197 196 197 198 198 201 203 203 205 207 207 209 209 209 209 209 209 208 207 207 206 207 207 209 210 209 208 208 208 209 209 208
159 152 163 170 155 140 145 157 168 175 184 194 199 196 193 197 201 199 199 199 197 196 193 192 193 193 191 192 195 195 196 197 196 196 197 198 200 202 203 204 205 205 207 208 208 207 208 208 207 207 207 207 207 208 209 210 209 208 209 210 211 211 210
130 144 155 163 155 149 155 165 174 178 184 189 192 195 193 195 201 202 201 201 200 197 195 194 194 193 191 191 193 195 196 196 197 198 198 200 202 203 204 204 204 204 204 205 207 207 207 208 207 207 208 208 209 210 210 210 210 209 209 210 211 212 212
99 126 143 147 143 146 152 161 172 178 182 185 189 195 196 195 200 204 201 200 202 200 197 196 194 193 192 192 194 196 196 197 199 200 201 202 204 205 205 205 205 204 204 205 206 207 206 207 208 208 208 209 210 211 211 211 211 211 210 210 211 212 212
101 112 124 125 120 129 148 162 171 178 183 185 188 193 198 199 200 203 202 199 201 203 201 197 195 194 192 192 195 197 197 199 200 201 203 204 205 206 206 207 207 207 206 205 205 207 207 207 208 209 209 210 211 211 212 212 212 211 211 210 211 212 212
118 118 119 122 128 138 159 171 168 172 177 180 185 192 199 202 199 200 202 199 200 204 204 199 195 195 194 193 195 197 198 199 201 202 203 204 205 206 207 208 209 208 207 207 206 207 209 209 208 208 209 211 212 212 213 213 213 212 211 210 211 212 213
131 140 140 134 145 155 157 152 143 150 163 174 185 192 199 203 198 197 201 202 201 204 206 202 196 195 196 195 195 197 197 199 201 202 203 204 205 206 207 208 209 209 209 209 208 207 208 210 209 208 209 211 212 213 213 215 215 214 214 213 212 212 213
98 137 142 138 149 158 151 142 134 143 164 180 196 197 198 202 199 199 203 204 204 204 206 207 199 194 198 199 196 195 196 198 201 202 203 205 206 206 207 207 208 209 210 209 210 208 207 208 210 210 209 210 211 212 213 216 218 217 216 215 214 213 213
47 70 128 126 130 140 147 156 160 168 180 190 203 206 201 200 201 203 206 206 204 203 206 209 205 196 197 200 197 195 197 198 199 201 203 204 206 206 207 207 208 209 210 210 210 209 207 207 210 211 211 210 211 213 215 217 218 218 217 216 216 215 214
68 128 145 99 116 139 153 168 172 177 187 189 195 204 205 204 204 205 209 208 205 203 205 209 209 201 195 198 198 195 196 198 199 201 203 203 205 207 207 207 208 209 209 210 210 209 208 208 209 211 212 212 212 214 216 219 219 218 217 217 217 216 215
86 119 75 68 130 136 118 130 152 161 175 180 187 197 200 202 206 206 209 212 208 205 205 206 210 207 196 195 198 196 195 197 199 201 203 204 204 206 207 208 209 209 210 210 209 209 210 210 210 212 213 215 216 216 218 220 221 219 218 218 217 216 216
6 306 217 180 152 77 62 58 74 86 80 109 201 215 197 196 201 203 207 213 211 208 207 204 208 211 200 192 195 196 194 196 199 201 204 205 204 205 207 208 209 209 209 209 209 210 211 211 211 213 214 216 218 219 220 222 223 222 221 220 218 217 217
9 352 335 96 89 73 59 48 40 34 20 4 342 312 253 210 204 202 205 211 212 209 208 205 205 209 204 194 193 195 194 195 197 200 203 204 205 207 208 208 209 208 208 208 210 212 212 213 214 215 216 217 218 222 225 226 225 225 224 222 220 218 218
44 35 29 47 65 67 59 48 37 29 9 345 317 285 277 259 235 218 204 202 207 209 206 205 206 208 206 198 194 195 195 195 197 199 201 203 205 207 208 208 208 207 207 208 210 212 213 214 217 218 218 219 220 223 227 229 228 227 227 225 221 218 218
39 38 31 36 52 59 51 37 17 359 328 303 294 283 278 274 275 280 242 200 198 201 203 207 208 207 206 202 196 196 196 196 197 198 200 203 205 206 206 206 207 208 208 208 210 214 215 216 219 220 221 222 222 223 227 230 230 230 231 229 224 219 218
25 27 22 31 47 45 28 8 340 318 301 307 330 318 295 280 275 286 293 247 203 194 198 207 208 206 206 203 198 196 195 196 197 198 200 202 203 203 203 204 206 207 208 209 211 216 219 219 220 221 221 223 224 225 227 229 230 231 232 231 227 222 220
17 14 5 17 34 30 6 354 355 337 341 7 4 339 319 314 296 275 280 284 249 209 201 205 205 204 204 202 197 194 195 197 197 197 200 202 203 203 203 203 205 206 206 209 212 216 219 221 221 221 222 223 225 226 227 228 229 231 232 232 231 227 222
6 5 359 0 10 18 11 12 20 10 358 0 351 333 322 312 300 285 279 283 271 242 219 206 200 200 201 201 198 194 193 197 198 198 200 203 204 205 205 204 204 205 206 208 212 213 215 219 222 223 223 224 225 227 230 229 229 230 232 233 233 230 224
2 2 4 353 356 28 28 13 12 1 347 348 347 343 341 322 292 278 280 283 272 254 247 219 196 192 193 196 198 196 192 194 198 199 199 202 203 204 205 206 206 207 207 209 212 214 214 217 221 225 228 228 228 230 232 233 232 231 233 234 235 233 229
360 357 0 347 352 23 18 2 8 0 350 359 356 343 340 331 312 267 253 281 281 246 250 245 198 186 186 190 195 198 194 190 194 198 199 201 202 203 205 207 207 207 208 209 211 215 216 216 218 224 230 235 236 236 237 236 236 236 235 236 236 235 234
354 349 350 340 346 6 357 347 17 7 358 10 4 350 340 333 323 272 145 356 3 343 268 267 208 180 179 183 190 196 197 192 191 195 198 200 202 204 206 206 207 208 209 209 211 214 216 217 217 220 227 235 240 244 244 242 242 241 240 239 239 237 237
346 347 347 340 351 4 350 338 9 14 5 3 3 2 349 344 358 54 55 23 18 21 1 324 232 179 174 179 187 193 200 198 192 191 194 198 202 205 205 205 206 209 209 208 210 213 217 219 219 219 224 231 237 244 249 250 251 251 248 246 244 242 241
340 344 342 337 349 357 342 332 351 10 5 356 360 9 2 360 21 47 45 21 9 12 11 1 350 162 163 169 179 187 196 203 197 189 190 198 204 205 205 206 206 208 209 208 207 211 217 221 225 227 229 232 236 240 247 253 258 262 264 259 250 245 243
332 335 334 336 348 347 334 334 347 356 3 5 4 4 8 17 24 34 42 30 15 9 9 6 18 118 142 156 168 179 192 203 198 184 184 195 202 201 201 205 209 208 206 207 208 210 214 217 223 231 235 237 238 238 241 246 251 258 270 275 261 252 248
329 325 325 337 355 350 340 343 347 353 10 17 5 357 7 21 17 19 40 35 16 47 103 193 188 165 157 167 176 180 189 203 199 184 182 190 197 202 201 201 207 210 207 209 215 217 216 216 219 226 232 237 241 240 239 240 241 253 292 327 316 277 262
322 316 312 320 344 356 352 345 344 9 22 9 342 350 16 26 20 35 55 57 83 142 145 163 181 188 181 182 191 188 185 195 197 191 189 188 191 204 209 199 200 207 204 202 212 218 218 215 213 218 228 237 257 282 271 259 279 338 338 328 324 322 300
319 317 310 299 305 337 2 328 332 19 26 310 284 262 216 143 94 75 56 44 51 102 132 153 176 181 162 143 143 166 174 186 189 189 197 195 187 198 208 201 194 197 180 147 153 191 209 191 103 33 349 6 18 6 353 342 330 319 312 308 308 310 308
304 313 319 315 305 292 178 186 198 111 283 301 303 282 214 115 77 79 83 73 59 56 80 143 173 147 111 85 70 82 92 77 107 149 159 117 96 139 174 175 171 164 128 99 84 65 45 33 26 13 1 15 25 4 334 325 319 310 306 307 307 305 305
289 301 318 335 358 63 154 160 148 140 148 348 5 19 40 48 33 27 50 59 47 38 35 33 92 118 102 86 75 75 75 62 61 82 90 70 60 67 78 96 119 120 97 77 66 65 65 56 47 42 31 20 16 6 345 333 331 327 322 320 318 315 314
Height
678 681 685 688 691 697 700 704 709 714 717 721 725 728 730 732 733 735 737 739 742 746 750 755 758 762 765 768 772 775 778 780 783 785 787 789 791 793 795 797 799 801 803 804 806 808 809 812 814 815 816 817 819 821 823 825 826 828 829 830 832 832 833
675 678 681 685 688 692 696 698 704 710 715 718 722 726 727 728 729 730 733 735 738 741 745 749 753 757 760 764 768 771 774 777 779 781 784 786 788 790 792 794 796 798 800 802 803 805 807 809 811 812 814 815 817 819 821 822 823 825 827 828 829 831 832
671 672 675 680 684 688 692 694 699 706 713 717 718 720 721 721 724 726 729 732 735 739 741 744 748 751 756 759 763 766 769 772 775 777 780 782 784 787 789 791 793 795 797 799 801 803 804 806 808 810 811 812 814 816 818 820 821 823 825 826 827 829 830
665 664 666 671 675 682 687 690 695 702 708 711 711 712 715 717 721 724 727 730 733 736 738 740 743 747 750 754 757 761 764 767 770 773 775 778 781 783 786 788 790 792 794 796 798 800 801 803 805 807 809 810 812 814 816 817 819 820 822 824 825 827 828
660 660 661 665 670 676 681 685 690 694 698 701 704 708 712 715 719 721 724 727 730 732 734 737 740 743 746 749 752 755 758 762 765 768 771 774 777 780 782 784 786 788 791 793 795 797 799 800 802 804 806 807 809 811 813 815 816 818 819 821 822 824 826
656 657 659 662 668 672 675 678 681 684 689 695 701 706 709 712 715 717 720 724 727 729 731 735 737 740 743 746 748 750 754 757 761 764 768 770 773 776 777 780 782 785 787 789 792 794 796 797 798 800 802 805 807 808 810 812 813 815 816 818 819 821 823
651 653 656 658 662 666 669 672 674 678 686 694 700 704 706 708 710 713 716 719 722 725 728 731 733 736 739 742 744 747 750 753 756 760 764 767 769 771 773 776 779 781 784 786 788 790 792 794 795 797 799 802 804 805 807 809 810 812 813 814 816 817 819
644 649 652 653 656 660 664 668 671 676 682 690 698 701 701 704 706 708 711 713 717 720 722 726 729 732 735 737 740 743 746 749 752 756 759 762 765 767 769 772 774 777 780 782 784 786 788 790 792 794 796 798 800 802 804 805 806 808 809 811 812 814 815
637 643 645 647 651 656 660 664 667 671 676 683 691 694 696 699 701 703 706 708 712 714 717 721 725 728 731 734 737 740 743 746 748 751 755 757 760 763 765 768 771 774 776 778 781 783 785 787 789 791 793 794 796 798 800 801 803 805 806 807 809 810 811
631 638 640 642 647 652 657 661 664 667 672 677 683 686 689 693 696 698 702 704 706 709 712 716 720 723 727 730 734 737 740 742 745 748 750 753 756 758 761 764 767 770 772 775 777 779 781 783 785 787 789 791 792 794 796 797 799 801 803 804 805 806 808
628 634 638 641 646 652 657 661 663 666 670 673 676 680 684 689 692 694 697 699 701 705 708 712 715 718 722 725 729 732 735 738 741 743 746 749 751 754 757 760 763 765 768 771 773 775 777 779 781 783 785 786 788 790 791 793 795 797 799 800 802 803 804
630 633 638 641 645 651 655 659 661 664 666 669 673 676 680 685 689 691 693 695 698 702 704 707 710 713 717 721 724 727 730 733 736 739 742 744 747 750 753 756 758 761 763 766 768 770 773 775 777 778 780 782 784 785 787 789 791 792 794 796 798 799 801
635 635 638 641 645 650 654 657 659 660 663 665 668 673 677 681 685 687 689 692 695 698 700 703 706 709 712 716 719 722 725 728 731 734 737 740 742 746 749 751 754 756 758 761 764 766 768 770 772 773 775 777 779 781 783 784 786 788 789 792 794 795 797
639 640 642 644 648 652 654 657 659 659 660 662 665 670 674 677 681 684 686 689 692 694 696 699 702 705 708 711 713 716 719 722 725 728 732 735 738 741 744 746 749 751 754 757 759 761 763 765 767 769 771 773 774 776 778 780 781 783 785 787 789 791 792
642 644 647 648 650 652 654 656 657 658 659 660 663 668 671 674 678 680 683 685 687 690 692 694 697 700 703 705 708 711 714 718 721 723 727 730 733 736 739 742 745 747 750 752 754 757 759 761 763 765 767 768 770 771 773 775 776 777 779 781 783 786 787
642 644 647 650 651 652 653 654 655 656 658 660 662 666 669 672 674 677 680 682 684 686 688 690 693 695 698 700 702 706 710 714 717 720 723 725 728 731 734 737 741 743 746 748 750 752 755 757 760 761 762 764 765 767 768 769 770 772 774 776 778 780 782
642 644 646 650 652 652 653 654 655 657 659 661 662 664 667 670 671 674 676 678 680 683 685 687 688 690 693 696 699 703 707 710 713 716 719 721 724 727 730 733 736 738 741 743 746 748 750 753 755 756 758 759 761 762 763 763 765 766 768 770 772 775 777
648 648 648 650 652 653 655 656 658 659 660 661 663 664 666 668 669 671 672 674 677 679 682 683 684 686 690 693 696 700 702 705 708 711 714 717 720 723 725 729 731 734 736 738 741 744 746 748 750 752 754 755 756 757 757 758 759 760 762 764 767 769 772
653 651 648 650 651 653 655 655 655 658 659 659 662 664 665 666 667 668 670 671 673 675 677 679 681 683 685 689 692 695 698 702 705 707 710 713 716 719 722 724 726 728 731 734 737 740 742 743 745 747 749 750 751 752 752 753 754 755 757 759 761 764 766
652 651 649 650 649 650 652 651 652 655 656 657 659 660 662 663 665 666 668 669 671 672 674 676 677 679 681 684 688 690 694 698 701 704 707 709 712 715 717 720 722 724 728 731 734 736 737 739 740 742 744 744 745 746 747 748 749 750 752 754 756 759 761
653 651 651 650 650 651 652 652 653 654 655 656 657 657 658 660 661 664 666 667 668 669 670 672 674 676 678 680 683 687 690 694 697 701 704 706 709 711 713 716 718 721 725 727 729 730 732 734 736 737 738 740 741 742 742 743 745 746 747 749 751 754 757
653 651 650 649 651 652 653 653 654 655 656 657 657 657 657 657 658 660 662 664 665 666 668 670 671 673 675 677 679 683 686 690 694 697 700 703 706 708 710 713 715 718 721 723 725 727 728 730 731 732 734 736 738 739 738 739 741 742 743 744 747 750 752
652 653 651 650 650 651 653 655 656 657 658 658 659 659 658 657 656 656 658 660 662 664 666 667 668 670 672 674 677 680 683 686 690 693 697 700 702 704 707 710 713 715 718 720 722 723 725 726 727 729 731 732 733 734 733 735 737 738 738 740 742 745 746
653 654 654 653 653 654 657 658 658 659 660 659 659 659 658 658 656 655 656 657 658 661 663 664 665 667 670 672 675 677 681 684 687 691 694 696 699 702 705 707 710 713 715 717 719 720 722 723 724 726 727 728 729 729 730 731 732 734 734 735 737 739 741
657 657 656 656 657 659 660 661 660 660 659 658 659 659 658 658 657 656 655 655 655 657 659 661 663 665 668 671 673 676 679 682 685 688 691 694 697 700 702 705 707 710 712 715 716 718 719 720 721 722 723 724 725 726 726 727 728 730 730 731 734 735 737
661 661 659 658 660 662 661 660 660 660 659 659 660 659 658 658 657 656 656 655 655 655 655 658 661 664 667 669 672 674 677 680 683 685 688 692 695 697 699 702 704 707 709 711 713 715 716 717 717 718 719 721 722 722 722 723 724 726 726 728 730 731 733
661 661 661 660 661 662 661 661 661 661 660 660 660 659 658 658 657 657 656 655 655 653 654 656 659 661 664 667 669 672 675 677 680 683 687 690 693 696 698 699 701 703 705 707 709 710 711 713 714 715 716 717 718 718 718 719 721 722 723 724 726 727 730
662 662 662 661 660 661 662 662 662 662 661 660 660 659 658 657 657 656 656 655 654 654 654 656 657 659 662 664 667 670 672 675 678 681 685 688 691 693 695 696 698 700 702 704 706 706 708 710 711 712 712 713 714 714 715 716 718 719 719 720 722 724 726
665 664 664 662 661 661 662 663 663 663 662 661 661 660 659 658 656 655 655 655 655 655 655 656 656 657 660 663 666 668 671 673 676 680 683 685 688 690 692 694 696 697 699 701 702 704 705 706 708 709 710 711 711 712 713 714 715 716 716 717 718 720 722
667 666 665 663 662 662 663 663 663 663 663 662 662 661 660 658 656 655 656 656 656 655 656 656 656 657 659 662 665 667 670 672 675 678 680 683 686 688 689 691 693 694 696 698 699 701 702 703 705 707 707 709 709 710 711 712 712 713 713 713 714 716 718
669 668 667 665 664 664 664 662 662 663 663 663 662 662 661 659 657 656 657 658 658 657 657 657 657 657 659 662 664 667 669 671 673 676 678 681 684 685 687 689 691 692 694 695 697 699 700 701 703 704 705 706 707 708 709 710 710 711 711 711 711 712 713
671 670 669 667 666 667 666 664 663 664 664 663 663 662 661 660 659 659 660 660 659 659 659 658 658 658 659 662 664 666 669 670 672 674 677 679 682 683 685 687 688 690 692 693 695 697 698 699 701 701 702 703 704 705 707 707 708 708 708 708 708 707 708
674 671 670 669 668 669 668 666 665 665 665 665 664 663 662 662 661 661 661 661 661 661 661 660 660 660 661 662 665 666 668 670 671 673 675 678 680 682 684 686 687 689 690 691 693 694 696 697 698 699 700 701 701 703 704 705 706 706 707 707 706 705 705
675 673 671 670 670 670 669 668 667 666 666 666 666 665 664 663 663 662 662 662 662 662 662 662 662 662 663 664 666 667 668 670 671 672 675 677 679 681 682 684 686 687 688 690 691 692 693 694 695 697 698 699 699 700 701 702 703 704 705 705 704 704 704
676 674 672 670 671 671 670 670 669 668 668 668 667 666 665 664 664 663 662 662 662 662 662 663 663 663 664 665 666 667 668 670 671 672 674 676 678 680 681 682 684 685 686 688 689 689 691 692 693 694 695 697 698 698 699 700 701 703 703 704 704 704 704
677 674 672 670 670 671 671 671 670 670 670 669 668 667 666 665 664 664 663 663 663 662 663 663 663 664 664 665 665 666 667 669 670 671 673 675 676 678 679 680 682 684 685 686 687 688 689 690 691 693 694 695 697 698 698 699 700 701 701 701 701 702 702
677 675 672 671 670 670 671 671 671 671 671 670 668 667 665 664 664 664 664 664 664 663 663 663 663 664 664 665 665 666 667 668 669 670 672 674 675 676 677 679 681 683 684 685 687 688 689 690 690 691 692 694 696 697 698 698 699 699 698 698 698 698 698
677 676 674 672 671 671 671 671 671 671 671 670 669 667 666 666 666 665 664 665 665 665 664 663 663 664 665 666 667 667 668 670 670 670 672 674 675 676 677 678 680 682 684 685 687 688 689 690 690 691 692 693 695 695 696 696 696 696 696 695 695 695 695